Time,TemperatureF,DewpointF,PressureIn,WindDirection,WindDirectionDegrees,WindSpeedMPH,WindSpeedGustMPH,Humidity,HourlyPrecipIn,Conditions,Clouds,dailyrainin,SolarRadiationWatts/m^2,SoftwareType,DateUTC
2013-07-20 00:02:00,78.0,69.0,30.01,South,176,2.0,2.0,74,0.00,,,0.19,-24.000000,,2013-07-20 05:02:00,
2013-07-20 00:12:00,78.0,69.0,30.01,South,176,2.0,2.0,74,0.00,,,0.19,-24.000000,,2013-07-20 05:12:00,
2013-07-20 00:52:00,76.0,66.0,30.01,South,177,4.0,4.0,72,0.00,,,0.19,-38.000000,,2013-07-20 05:52:00,
2013-07-20 01:01:00,76.0,66.0,30.01,South,177,4.0,4.0,72,0.00,,,0.19,-38.000000,,2013-07-20 06:01:00,
2013-07-20 01:11:00,76.0,66.0,30.01,South,177,4.0,4.0,72,0.00,,,0.19,-38.000000,,2013-07-20 06:11:00,
2013-07-20 01:43:00,76.0,65.0,30.00,South,177,4.0,5.0,68,0.00,,,0.19,-37.000000,,2013-07-20 06:43:00,
2013-07-20 01:52:00,76.0,65.0,30.00,South,177,4.0,5.0,68,0.00,,,0.19,-37.000000,,2013-07-20 06:52:00,
2013-07-20 02:01:00,76.0,65.0,30.00,South,177,4.0,5.0,68,0.00,,,0.19,-37.000000,,2013-07-20 07:01:00,
2013-07-20 02:12:00,76.0,65.0,30.00,South,177,4.0,5.0,68,0.00,,,0.19,-37.000000,,2013-07-20 07:12:00,
2013-07-20 02:44:00,75.0,67.0,30.00,South,178,4.0,4.0,75,0.00,,,0.19,-39.000000,,2013-07-20 07:44:00,
2013-07-20 02:54:00,75.0,67.0,30.00,South,178,4.0,4.0,75,0.00,,,0.19,-39.000000,,2013-07-20 07:54:00,
2013-07-20 03:01:00,75.0,67.0,30.00,South,178,4.0,4.0,75,0.00,,,0.19,-39.000000,,2013-07-20 08:01:00,
2013-07-20 03:11:00,75.0,67.0,30.00,South,178,4.0,4.0,75,0.00,,,0.19,-39.000000,,2013-07-20 08:11:00,
2013-07-20 03:44:00,75.0,68.0,30.00,South,178,2.0,2.0,79,0.00,,,0.19,-19.000000,,2013-07-20 08:44:00,
2013-07-20 03:52:00,75.0,68.0,30.00,South,178,2.0,2.0,79,0.00,,,0.19,-19.000000,,2013-07-20 08:52:00,
2013-07-20 04:02:00,75.0,68.0,30.00,South,178,2.0,2.0,79,0.00,,,0.19,-19.000000,,2013-07-20 09:02:00,
2013-07-20 04:11:00,75.0,68.0,30.00,South,178,2.0,2.0,79,0.00,,,0.19,-19.000000,,2013-07-20 09:11:00,
2013-07-20 04:43:00,75.0,69.0,29.99,South,178,5.0,5.0,80,0.00,,,0.19,-23.000000,,2013-07-20 09:43:00,
2013-07-20 04:53:00,75.0,69.0,29.99,South,178,5.0,5.0,80,0.00,,,0.19,-23.000000,,2013-07-20 09:53:00,
2013-07-20 05:01:00,75.0,69.0,29.99,South,178,5.0,5.0,80,0.00,,,0.19,-23.000000,,2013-07-20 10:01:00,
2013-07-20 05:11:00,75.0,69.0,29.99,South,178,5.0,5.0,80,0.00,,,0.19,-23.000000,,2013-07-20 10:11:00,
2013-07-20 05:42:00,74.0,69.0,29.99,South,178,2.0,2.0,85,0.00,,,0.19,-35.000000,,2013-07-20 10:42:00,
2013-07-20 05:52:00,74.0,69.0,29.99,South,178,2.0,2.0,85,0.00,,,0.19,-35.000000,,2013-07-20 10:52:00,
2013-07-20 06:01:00,74.0,69.0,29.99,South,178,2.0,2.0,85,0.00,,,0.19,-35.000000,,2013-07-20 11:01:00,
2013-07-20 06:11:00,74.0,69.0,29.99,South,178,2.0,2.0,85,0.00,,,0.19,-35.000000,,2013-07-20 11:11:00,
2013-07-20 07:52:00,73.0,69.0,29.99,South,178,4.0,4.0,88,-99.99,,,0.19,-20.000000,,2013-07-20 12:52:00,
2013-07-20 08:01:00,73.0,69.0,29.99,South,178,4.0,4.0,88,-99.99,,,0.19,-20.000000,,2013-07-20 13:01:00,
2013-07-20 08:11:00,73.0,69.0,29.99,South,178,4.0,4.0,88,-99.99,,,0.19,-20.000000,,2013-07-20 13:11:00,
2013-07-20 08:43:00,75.0,70.0,29.99,South,178,4.0,4.0,85,0.00,,,0.19,50.000000,,2013-07-20 13:43:00,
2013-07-20 08:53:00,75.0,70.0,29.99,South,178,4.0,4.0,85,0.00,,,0.19,50.000000,,2013-07-20 13:53:00,
2013-07-20 09:02:00,75.0,70.0,29.99,South,178,4.0,4.0,85,0.00,,,0.19,50.000000,,2013-07-20 14:02:00,
2013-07-20 09:11:00,75.0,70.0,29.99,South,178,4.0,4.0,85,0.00,,,0.19,50.000000,,2013-07-20 14:11:00,
2013-07-20 10:44:00,84.0,69.0,29.97,South,172,5.0,5.0,62,0.00,,,0.19,413.000000,,2013-07-20 15:44:00,
2013-07-20 10:53:00,84.0,69.0,29.97,South,172,5.0,5.0,62,0.00,,,0.19,413.000000,,2013-07-20 15:53:00,
2013-07-20 11:01:00,84.0,69.0,29.97,South,172,5.0,5.0,62,0.00,,,0.19,413.000000,,2013-07-20 16:01:00,
2013-07-20 11:11:00,84.0,69.0,29.97,South,172,5.0,5.0,62,0.00,,,0.19,413.000000,,2013-07-20 16:11:00,
2013-07-20 11:43:00,87.0,68.0,29.97,SSE,168,5.0,5.0,53,0.00,,,0.19,499.000000,,2013-07-20 16:43:00,
2013-07-20 11:52:00,87.0,68.0,29.97,SSE,168,5.0,5.0,53,0.00,,,0.19,499.000000,,2013-07-20 16:52:00,
2013-07-20 12:02:00,87.0,68.0,29.97,SSE,168,5.0,5.0,53,0.00,,,0.19,499.000000,,2013-07-20 17:02:00,
2013-07-20 12:11:00,87.0,68.0,29.97,SSE,168,5.0,5.0,53,0.00,,,0.19,499.000000,,2013-07-20 17:11:00,
2013-07-20 12:43:00,91.0,65.0,29.96,SSE,166,2.0,2.0,43,0.00,,,0.19,617.000000,,2013-07-20 17:43:00,
2013-07-20 12:53:00,91.0,65.0,29.96,SSE,166,2.0,2.0,43,0.00,,,0.19,617.000000,,2013-07-20 17:53:00,
2013-07-20 13:01:00,91.0,65.0,29.96,SSE,166,2.0,2.0,43,0.00,,,0.19,617.000000,,2013-07-20 18:01:00,
2013-07-20 13:11:00,91.0,65.0,29.96,SSE,166,2.0,2.0,43,0.00,,,0.19,617.000000,,2013-07-20 18:11:00,
2013-07-20 16:13:00,92.0,61.0,29.92,SSE,165,2.0,2.0,35,0.00,,,0.19,146.000000,,2013-07-20 21:13:00,
2013-07-20 16:44:00,91.0,62.0,29.89,SSE,166,4.0,5.0,38,0.00,,,0.19,97.000000,,2013-07-20 21:44:00,
2013-07-20 16:56:00,91.0,62.0,29.89,SSE,166,4.0,5.0,38,0.00,,,0.19,97.000000,,2013-07-20 21:56:00,
2013-07-20 17:05:00,91.0,62.0,29.89,SSE,166,4.0,5.0,38,0.00,,,0.19,97.000000,,2013-07-20 22:05:00,
2013-07-20 17:15:00,90.0,64.0,29.89,SSE,168,4.0,5.0,42,0.00,,,0.00,160.000000,,2013-07-20 22:15:00,
2013-07-20 17:47:00,90.0,64.0,29.89,SSE,168,4.0,5.0,42,0.00,,,0.00,160.000000,,2013-07-20 22:47:00,
2013-07-20 17:56:00,90.0,64.0,29.89,SSE,168,4.0,5.0,42,0.00,,,0.00,160.000000,,2013-07-20 22:56:00,
2013-07-20 18:04:00,90.0,64.0,29.89,SSE,168,4.0,5.0,42,0.00,,,0.00,160.000000,,2013-07-20 23:04:00,
2013-07-20 18:44:00,85.0,63.0,29.89,South,169,5.0,7.0,48,0.00,,,0.00,116.000000,,2013-07-20 23:44:00,
2013-07-20 18:56:00,85.0,63.0,29.89,South,169,5.0,7.0,48,0.00,,,0.00,116.000000,,2013-07-20 23:56:00,
2013-07-20 19:43:00,85.0,65.0,29.87,South,170,4.0,5.0,52,0.00,,,0.00,55.000000,,2013-07-21 00:43:00,
2013-07-20 19:56:00,85.0,65.0,29.87,South,170,4.0,5.0,52,0.00,,,0.00,55.000000,,2013-07-21 00:56:00,
2013-07-20 20:06:00,85.0,65.0,29.87,South,170,4.0,5.0,52,0.00,,,0.00,55.000000,,2013-07-21 01:06:00,
2013-07-20 20:15:00,82.0,66.0,29.89,South,171,5.0,5.0,58,0.00,,,0.00,-28.000000,,2013-07-21 01:15:00,
2013-07-20 20:45:00,-999.0,-99.9,29.89,South,171,5.0,5.0,-999,-99.99,,,-99.99,-28.000000,,2013-07-21 01:45:00,
2013-07-20 20:59:00,82.0,66.0,29.89,South,171,5.0,5.0,58,0.00,,,0.00,-28.000000,,2013-07-21 01:59:00,
2013-07-20 21:04:00,82.0,66.0,29.89,South,171,5.0,5.0,58,0.00,,,0.00,-28.000000,,2013-07-21 02:04:00,
2013-07-20 21:43:00,81.0,66.0,29.90,South,174,4.0,4.0,62,0.00,,,0.00,-38.000000,,2013-07-21 02:43:00,
2013-07-20 21:58:00,81.0,66.0,29.90,South,174,4.0,4.0,62,0.00,,,0.00,-38.000000,,2013-07-21 02:58:00,
2013-07-20 22:04:00,81.0,66.0,29.90,South,174,4.0,4.0,62,0.00,,,0.00,-38.000000,,2013-07-21 03:04:00,
2013-07-20 22:14:00,81.0,66.0,29.90,South,174,4.0,4.0,62,0.00,,,0.00,-38.000000,,2013-07-21 03:14:00,
2013-07-20 22:44:00,82.0,65.0,29.92,South,175,5.0,7.0,56,0.00,,,0.00,-38.000000,,2013-07-21 03:44:00,
2013-07-20 23:00:00,82.0,65.0,-100.00,South,175,5.0,7.0,56,0.00,,,0.00,-38.000000,,2013-07-21 04:00:00,
2013-07-20 23:01:00,82.0,65.0,29.92,South,175,5.0,7.0,56,0.00,,,0.00,-38.000000,,2013-07-21 04:01:00,
2013-07-20 23:11:00,82.0,65.0,29.92,South,175,5.0,7.0,56,0.00,,,0.00,-38.000000,,2013-07-21 04:11:00,
2013-07-20 23:43:00,80.0,67.0,29.93,South,176,7.0,7.0,65,0.00,,,0.00,-46.000000,,2013-07-21 04:43:00,
2013-07-20 23:53:00,80.0,67.0,29.93,South,176,7.0,7.0,65,0.00,,,0.00,-46.000000,,2013-07-21 04:53:00,